Home   Weather   Seelze   Past weeks

Flag for Germany Past Weather in Seelze, Lower Saxony, Germany — Yesterday and Last 2 Weeks

Now
50 °F

Passing clouds.


Feels Like: 46 °F
Forecast: 42 / 46 °F
Wind: 12 mph from West

Location: Hannover

Current Time: Dec 10, 2016 at 12:14:13 am

Latest Report: Dec 9, 2016 at 11:20 pm


Visibility: N/A

Pressure: 30.21 "Hg

Humidity: 82%

Dew Point: 45 °F

Location of SeelzeLocation

Past Weather in Seelze — Graph

°F

Seelze Temperature Yesterday

Maximum temperature yesterday: 52 °F (at 7:50 pm)
Minimum temperature yesterday: 43 °F (at 1:20 am)
Average temperature yesterday: 47 °F

High & Low Weather Summary for the Past Weeks

 TemperatureHumidityPressure
High52 °F (Dec 8, 1:20 pm)100% (Nov 24, 10:50 pm)30.60 "Hg (Nov 24, 10:50 pm)
Low18 °F (Nov 29, 4:50 am)49% (Dec 5, 12:50 pm)29.98 "Hg (Nov 27, 12:50 am)
Average35 °F85%30.30 "Hg
* Reported Nov 24 10:20 pm — Dec 9 10:50 pm, Seelze, Weather by CustomWeather, © 2016

Note: Actual official high and low records may vary slightly from our data, if they occured in-between our weather recording intervals... More about our weather records

Advertising

Seelze Weather History for the Previous 24 Hours

Scroll right to see more
 ConditionsComfort  
Time TempWeatherWind HumidityBarometerVisibility
10:50 pm
Fri, Dec 9
50 °FPassing clouds.10 mph82%30.21 "HgN/A
10:20 pm50 °FPassing clouds.10 mph82%30.21 "HgN/A
9:50 pm50 °FPassing clouds.13 mph88%30.24 "HgN/A
9:20 pm50 °FPassing clouds.12 mph88%30.24 "HgN/A
8:50 pm52 °FPassing clouds.12 mph82%30.24 "Hg6 mi
8:20 pm52 °FPassing clouds.9 mph88%30.24 "Hg4 mi
7:50 pm52 °FPassing clouds.12 mph88%30.24 "Hg4 mi
7:20 pm50 °FFog.7 mph94%30.24 "Hg3 mi
6:50 pm50 °FFog.6 mph94%30.24 "Hg3 mi
6:20 pm48 °FDrizzle. Fog.6 mph100%30.27 "Hg2 mi
5:50 pm48 °FDrizzle. Fog.6 mph94%30.27 "Hg1 mi
5:20 pm48 °FFog.6 mph94%30.27 "Hg3 mi
4:50 pm48 °FFog.6 mph94%30.27 "Hg3 mi
4:20 pm48 °FFog.6 mph94%30.30 "Hg3 mi
3:50 pm48 °FFog.8 mph94%30.30 "Hg3 mi
3:20 pm48 °FFog.10 mph94%30.30 "Hg3 mi
2:50 pm48 °FFog.9 mph94%30.30 "Hg2 mi
2:20 pm48 °FFog.8 mph94%30.30 "Hg2 mi
1:50 pm48 °FFog.8 mph94%30.30 "Hg2 mi
1:20 pm48 °FFog.10 mph94%30.30 "Hg2 mi
12:50 pm48 °FFog.10 mph94%30.33 "Hg3 mi
12:20 pm48 °FFog.10 mph94%30.30 "Hg3 mi
11:50 am48 °FFog.10 mph94%30.30 "Hg3 mi
11:20 am48 °FFog.12 mph94%30.30 "Hg3 mi
10:50 am48 °FDrizzle. Fog.15 mph94%30.30 "Hg3 mi
10:20 am46 °FDrizzle. Fog.13 mph100%30.30 "Hg2 mi
9:50 am46 °FDrizzle. Fog.10 mph100%30.27 "Hg2 mi
9:20 am46 °FDrizzle. Fog.10 mph93%30.27 "Hg1 mi
8:50 am46 °FDrizzle. Fog.12 mph93%30.27 "Hg1 mi
8:20 am46 °FDrizzle. Fog.10 mph93%30.27 "Hg1 mi
7:50 am46 °FDrizzle. Fog.12 mph93%30.24 "Hg1 mi
7:20 am46 °FDrizzle. Fog.13 mph93%30.24 "Hg1 mi
6:50 am46 °FDrizzle. Fog.13 mph93%30.24 "Hg2 mi
6:20 am46 °FLight rain. Fog.12 mph93%30.24 "Hg2 mi
5:20 am45 °FLight rain. Fog.9 mph100%30.24 "Hg2 mi
4:50 am45 °FLight rain. Fog.12 mph93%30.24 "Hg2 mi
4:20 am45 °FFog.9 mph93%30.24 "Hg2 mi
3:50 am45 °FFog.8 mph93%30.24 "Hg2 mi
3:20 am45 °FLight rain. Fog.9 mph93%30.24 "Hg2 mi
2:50 am45 °FPassing clouds.9 mph93%30.24 "Hg4 mi
2:20 am45 °FFog.9 mph93%30.24 "Hg2 mi
1:50 am43 °FFog.10 mph100%30.24 "Hg2 mi
1:20 am43 °FLight rain. Passing clouds.9 mph93%30.24 "Hg5 mi
12:50 am45 °FPassing clouds.10 mph87%30.27 "HgN/A
12:20 am45 °FPassing clouds.14 mph81%30.27 "HgN/A
Weather by CustomWeather, © 2016

See weather overviewHow to use our weather pages